TimeEDT,TemperatureF,Dew PointF,Humidity,Sea Level PressureIn,VisibilityMPH,Wind Direction,Wind SpeedMPH,Gust SpeedMPH,PrecipitationIn,Events,Conditions,WindDirDegrees,DateUTC
12:53 AM,57.0,52.0,83,30.16,10.0,Calm,Calm,-,N/A,,Clear,0,2013-09-19 04:53:00
1:53 AM,55.9,52.0,87,30.16,10.0,Calm,Calm,-,N/A,,Clear,0,2013-09-19 05:53:00
2:53 AM,55.9,53.1,90,30.15,10.0,Calm,Calm,-,N/A,,Clear,0,2013-09-19 06:53:00
3:53 AM,55.9,52.0,87,30.14,10.0,West,4.6,-,N/A,,Clear,270,2013-09-19 07:53:00
4:53 AM,55.0,50.0,83,30.13,10.0,Calm,Calm,-,N/A,,Clear,0,2013-09-19 08:53:00
5:53 AM,53.1,50.0,89,30.14,10.0,West,3.5,-,N/A,,Clear,280,2013-09-19 09:53:00
6:53 AM,53.1,48.9,86,30.14,10.0,Calm,Calm,-,N/A,,Clear,0,2013-09-19 10:53:00
7:53 AM,57.0,50.0,77,30.14,10.0,Calm,Calm,-,N/A,,Clear,0,2013-09-19 11:53:00
8:53 AM,60.1,50.0,69,30.14,10.0,Variable,3.5,-,N/A,,Clear,0,2013-09-19 12:53:00
9:53 AM,64.0,51.1,63,30.14,10.0,Variable,4.6,-,N/A,,Clear,0,2013-09-19 13:53:00
10:53 AM,66.9,51.1,57,30.13,10.0,West,3.5,-,N/A,,Clear,270,2013-09-19 14:53:00
11:53 AM,70.0,52.0,53,30.12,10.0,Variable,3.5,-,N/A,,Clear,0,2013-09-19 15:53:00
12:53 PM,72.0,50.0,46,30.11,10.0,Variable,3.5,-,N/A,,Clear,0,2013-09-19 16:53:00
1:53 PM,71.1,53.1,53,30.10,10.0,South,5.8,-,N/A,,Clear,190,2013-09-19 17:53:00
2:53 PM,72.0,54.0,53,30.08,10.0,South,9.2,-,N/A,,Clear,180,2013-09-19 18:53:00
3:53 PM,70.0,53.1,55,30.07,10.0,South,8.1,-,N/A,,Clear,190,2013-09-19 19:53:00
4:53 PM,68.0,50.0,52,30.06,10.0,SSW,10.4,18.4,N/A,,Clear,210,2013-09-19 20:53:00
5:53 PM,66.9,53.1,61,30.06,10.0,SSW,6.9,-,N/A,,Clear,210,2013-09-19 21:53:00
6:53 PM,64.0,55.0,73,30.06,10.0,Calm,Calm,-,N/A,,Clear,0,2013-09-19 22:53:00
7:53 PM,63.0,55.0,75,30.08,10.0,Variable,3.5,-,N/A,,Clear,0,2013-09-19 23:53:00
8:53 PM,61.0,55.9,83,30.09,10.0,SSW,3.5,-,N/A,,Clear,210,2013-09-20 00:53:00
9:53 PM,60.1,55.9,86,30.09,10.0,Calm,Calm,-,N/A,,Clear,0,2013-09-20 01:53:00
10:53 PM,60.1,55.9,86,30.08,10.0,Calm,Calm,-,N/A,,Clear,0,2013-09-20 02:53:00
11:53 PM,59.0,55.0,87,30.07,10.0,Calm,Calm,-,N/A,,Clear,0,2013-09-20 03:53:00